CW6490 Weather Reports


Display with metric or nautical units.
time (UTC)temp
F
wind
direction
speed
MPH
gust
MPH
rain 1hr
in
rain 24hr
in
rain mn
in
humidity
%
barometer
mb
20260831151824 75 303 0.0 2.0 0.04 0.05 0.04 85 1017.3
20260831150814 75 303 1.0 5.0 0.04 0.05 0.04 84 1017.1
20260831145831 76 303 0.0 4.0 0.04 0.05 0.04 84 1016.9
20260831144823 76 303 0.0 2.0 0.03 0.04 0.03 82 1016.9
20260831143818 77 303 1.0 3.0 0.02 0.03 0.02 79 1016.7
20260831142831 78 303 3.0 10.0 0.01 0.02 0.01 76 1016.3
20260831141822 78 303 3.0 9.0 0.00 0.01 0.00 72 1016.1
20260831140819 79 303 4.0 10.0 0.00 0.01 0.00 71 1015.8
20260831135832 79 303 5.0 13.0 0.00 0.01 0.00 70 1015.5
20260831134828 80 303 5.0 10.0 0.00 0.01 0.00 69 1015.3
20260831133820 81 303 2.0 9.0 0.00 0.01 0.00 66 1015.1
20260831132832 81 303 2.0 9.0 0.00 0.01 0.00 64 1014.8
20260831131847 81 303 2.0 5.0 0.00 0.01 0.00 64 1014.4
20260831130824 80 303 1.0 4.0 0.00 0.01 0.00 65 1014.2
20260831125818 80 303 0.0 2.0 0.00 0.01 0.00 66 1014.0
20260831124830 80 303 0.0 2.0 0.00 0.01 0.00 66 1014.0
20260831123844 81 303 0.0 3.0 0.00 0.01 0.00 66 1013.9
20260831122816 81 303 0.0 3.0 0.00 0.01 0.00 65 1013.7
20260831121853 81 303 1.0 4.0 0.00 0.01 0.00 65 1013.5
20260831120821 81 303 1.0 4.0 0.00 0.01 0.00 66 1013.3
20260831115853 81 303 2.0 4.0 0.00 0.01 0.00 65 1013.1
20260831114826 81 303 0.0 2.0 0.00 0.01 0.00 63 1013.1
20260831113821 81 303 0.0 2.0 0.00 0.01 0.00 62 1012.8
20260831112816 81 303 0.0 1.0 0.00 0.01 0.00 60 1012.7
20260831111827 81 303 0.0 3.0 0.00 0.01 0.00 60 1012.5
20260831110818 81 303 3.0 5.0 0.00 0.01 0.00 60 1012.5
20260831105831 81 303 1.0 5.0 0.00 0.01 0.00 61 1012.6
20260831104845 81 303 1.0 3.0 0.00 0.01 0.00 60 1012.3
20260831103818 81 303 1.0 2.0 0.00 0.01 0.00 60 1012.0
20260831102813 81 303 1.0 2.0 0.00 0.01 0.00 60 1011.7
20260831101826 81 303 0.0 2.0 0.00 0.01 0.00 59 1011.4
20260831100818 81 303 1.0 5.0 0.00 0.01 0.00 59 1011.5
20260831095852 81 303 0.0 2.0 0.00 0.01 0.00 60 1011.8
20260831094825 81 303 3.0 5.0 0.00 0.01 0.00 60 1011.7
20260831093822 81 303 1.0 4.0 0.00 0.01 0.00 60 1011.8
20260831092814 81 303 1.0 5.0 0.00 0.01 0.00 60 1012.0
20260831091826 81 303 2.0 5.0 0.00 0.01 0.00 60 1012.0
20260831090817 80 303 2.0 5.0 0.00 0.01 0.00 62 1012.2
20260831085828 81 303 2.0 6.0 0.00 0.01 0.00 63 1012.4
20260831084840 81 303 4.0 10.0 0.00 0.01 0.00 63 1012.5
20260831083816 81 303 2.0 9.0 0.00 0.01 0.00 64 1012.4
20260831082829 81 303 3.0 6.0 0.00 0.01 0.00 63 1012.8
20260831081823 81 303 1.0 6.0 0.00 0.01 0.00 62 1012.8
20260831080814 82 303 1.0 5.0 0.00 0.01 0.00 61 1012.8
20260831075826 82 303 1.0 2.0 0.00 0.01 0.00 63 1012.9
20260831074824 82 303 1.0 5.0 0.00 0.01 0.00 63 1012.9
20260831073816 82 303 1.0 3.0 0.00 0.01 0.00 64 1012.7
20260831072830 83 303 0.0 3.0 0.00 0.01 0.00 65 1012.7
20260831071825 82 303 1.0 5.0 0.00 0.01 0.00 64 1012.6
20260831070818 82 303 2.0 8.0 0.00 0.01 0.00 64 1012.4
20260831065815 82 303 2.0 9.0 0.00 0.01 0.01 65 1012.6
20260831064828 83 303 2.0 10.0 0.00 0.01 0.01 65 1012.2
20260831063823 83 303 2.0 10.0 0.00 0.01 0.01 65 1011.9
20260831062815 83 303 2.0 11.0 0.00 0.01 0.01 62 1011.8
20260831061827 83 303 3.0 10.0 0.00 0.01 0.01 60 1011.6
20260831060845 82 303 4.0 9.0 0.00 0.01 0.01 62 1011.5
20260831055817 81 303 1.0 5.0 0.00 0.01 0.01 66 1011.6
20260831054849 81 303 1.0 2.0 0.00 0.01 0.01 66 1011.0
20260831053823 82 303 1.0 6.0 0.00 0.01 0.01 66 1010.9
20260831052814 83 303 5.0 10.0 0.00 0.01 0.01 64 1011.0
20260831051826 84 303 2.0 8.0 0.01 0.01 0.01 63 1010.8
20260831050822 84 303 3.0 8.0 0.01 0.01 0.01 61 1011.0
20260831045835 83 303 3.0 8.0 0.01 0.01 0.01 62 1011.4
20260831044828 82 303 6.0 10.0 0.01 0.01 0.01 65 1011.6
20260831043822 82 303 5.0 10.0 0.01 0.01 0.01 66 1011.4
20260831042855 84 303 8.0 12.0 0.01 0.01 0.01 63 1011.2
20260831041831 88 303 4.0 9.0 0.00 0.00 0.00 58 1011.1
20260831040825 90 303 6.0 12.0 0.00 0.00 0.00 50 1010.9
20260831035818 92 303 4.0 12.0 0.00 0.00 0.00 45 1010.9
20260831034832 95 303 5.0 11.0 0.00 0.00 0.00 40 1010.7
20260831033821 99 303 3.0 11.0 0.00 0.00 0.00 36 1010.4
20260831032849 101 303 1.0 4.0 0.00 0.00 0.00 32 1009.4
20260830202823 107 303 1.0 4.0 0.00 0.00 0.00 28 1011.9
20260830201816 107 303 1.0 3.0 0.00 0.00 0.00 29 1012.1
20260830200830 104 303 1.0 3.0 0.00 0.00 0.00 30 1012.2
20260830195843 105 303 0.0 3.0 0.00 0.00 0.00 29 1012.3
20260830194815 104 303 2.0 8.0 0.00 0.00 0.00 30 1012.4
20260830193833 103 303 2.0 5.0 0.00 0.00 0.00 31 1012.5
20260830192825 105 303 0.0 6.0 0.00 0.00 0.00 33 1012.7
20260830191817 103 303 1.0 4.0 0.00 0.00 0.00 32 1012.9
20260830190829 104 303 1.0 4.0 0.00 0.00 0.00 30 1013.2
20260830185822 104 303 1.0 5.0 0.00 0.00 0.00 32 1013.3
20260830184819 105 303 0.0 4.0 0.00 0.00 0.00 32 1013.4
20260830183814 103 303 1.0 4.0 0.00 0.00 0.00 32 1013.6
20260830182826 103 303 2.0 5.0 0.00 0.00 0.00 33 1013.8
20260830181817 102 303 1.0 9.0 0.00 0.00 0.00 34 1014.0
20260830180829 101 303 2.0 5.0 0.00 0.00 0.00 34 1014.2
20260830175827 102 303 1.0 4.0 0.00 0.00 0.00 34 1014.4
20260830174820 100 303 1.0 5.0 0.00 0.00 0.00 34 1014.4
20260830173854 101 303 0.0 8.0 0.00 0.00 0.00 34 1014.3
20260830172826 102 303 2.0 8.0 0.00 0.00 0.00 33 1014.5
20260830171838 101 303 0.0 3.0 0.00 0.00 0.00 36 1014.5
20260830170815 100 303 1.0 4.0 0.00 0.00 0.00 36 1014.5
20260830165847 100 303 3.0 5.0 0.00 0.00 0.00 34 1014.4
20260830164820 99 303 0.0 6.0 0.00 0.00 0.00 36 1014.5
20260830163832 98 303 1.0 4.0 0.00 0.00 0.00 38 1014.4
20260830162826 97 303 1.0 3.0 0.00 0.00 0.00 38 1014.5
20260830161820 96 303 0.0 4.0 0.00 0.00 0.00 39 1014.5
20260830160816 95 303 1.0 6.0 0.00 0.00 0.00 40 1014.5
20260830155827 94 303 2.0 6.0 0.00 0.00 0.00 41 1014.5
20260830154821 93 303 3.0 8.0 0.00 0.00 0.00 42 1014.5
20260830153814 94 303 3.0 10.0 0.00 0.00 0.00 41 1014.3
20260830152828 94 303 2.0 4.0 0.00 0.00 0.00 41 1014.5